Location: Hilde
(52.9479°N, 6.4449°E)
Time: 10:49:11
(UTC+00:00)

NOSS 3-4 (C) - Pass Details

Date: 15 May 2026
Orbit: 773 x 1438 km, 63.4° (Epoch: 26 December)

Event Time Altitude Azimuth Distance (km) Brightness Sun altitude
Rises 20:39:45 0° 312° (NW) 3,633 8.7 -9.1°
Reaches altitude 10° 20:42:08 10° 312° (NW) 2,767 7.5 -9.3°
Maximum altitude 20:48:42 78° 227° (SW) 1,149 3.9 -10.0°
Enters shadow 20:55:45 13° 143° (SE) 2,993 5.3 -10.6°
